Location: McMath-Hulbert Observatory
(42.6964°N, 83.3187°W)
Time: 07:45:45
(UTC-04:00)

Daily predictions for brighter satellites

Satellite Brightness Start Highest point End
(mag) Time Altitude Azimuth Time Altitude Azimuth Time Altitude Azimuth
CZ-4 DEB 4.4 21:47:35 10° SSW 21:50:32 34° W 21:53:31 10° NNW
ALOS 3.9 21:47:48 10° SSW 21:52:03 35° W 21:56:20 10° NNW
USA 186 4.0 21:51:12 10° SW 21:52:50 16° W 21:54:30 10° NW
Cosmos 1939 Rocket 2.8 21:49:04 10° SSE 21:53:01 76° ENE 21:56:56 10° N
Delta 2 Rocket 4.4 21:52:44 10° SSW 21:55:16 18° SSE 21:57:42 10° ESE
Cosmos 1674 3.0 21:55:28 10° SSE 21:59:07 46° E 22:02:50 10° NNE
Envisat 3.0 21:54:55 10° SSE 21:59:59 76° ENE 22:05:04 10° N
SPOT 5 3.0 21:56:04 10° SSE 22:00:30 58° ENE 22:05:13 10° N
Meteor 2-2 Rocket 4.4 21:58:39 10° N 22:04:41 83° E 22:10:43 10° SSE
Cosmos 1833 4.3 22:00:18 10° S 22:05:54 60° ESE 22:11:30 10° NNE
ERS-1 Rocket 3.6 22:01:54 10° S 22:06:50 56° W 22:11:48 10° NNW
Cosmos 2333 Rocket 4.3 22:04:15 10° N 22:07:40 16° NE 22:11:04 10° E
Cosmos 1300 4.2 22:05:15 10° NNE 22:08:18 22° ENE 22:11:00 11° ESE
Cosmos 1437 Rocket 2.7 22:04:38 10° N 22:08:28 87° W 22:12:18 10° S
Cosmos 1515 Rocket 3.8 22:04:06 10° NNW 22:08:33 72° W 22:12:55 10° S
DELTA 2 R/B (1) 3.8 22:05:36 10° W 22:11:02 56° S 22:16:23 10° ESE
USA 245 3.8 22:10:34 13° ESE 22:12:15 22° ENE 22:14:12 10° NNE
Cosmos 1437 3.3 22:09:16 10° SSE 22:12:20 39° E 22:15:27 10° NNE
Nimbus 7 Rocket 4.4 22:08:27 10° NNE 22:14:21 84° ESE 22:20:13 10° SSW
Cosmos 1777 Rocket 4.1 22:11:33 10° SSW 22:16:50 84° WNW 22:22:07 10° NNE
PSLV R/B 3.1 22:16:12 11° SSE 22:19:12 86° ENE 22:22:17 10° N
Cosmos 2315 Rocket 4.2 22:13:43 10° N 22:19:50 56° ENE 22:25:34 12° SSE
COSMOS 2428 3.5 22:14:44 10° NNW 22:20:06 40° ENE 22:24:46 13° SE
Cosmos 2266 Rocket 4.0 22:16:04 10° S 22:22:23 86° E 22:28:37 10° N
Sich 1 4.3 22:20:01 14° SE 22:22:50 24° E 22:26:23 10° NE
AVUM R/B 2.6 22:20:36 10° SSW 22:22:54 72° WNW 22:25:25 10° NNE
Cosmos 1633 Rocket 4.4 22:21:04 14° SE 22:23:43 23° E 22:27:11 10° NE
Cosmos 2151 2.9 22:19:34 10° S 22:23:44 66° E 22:27:55 10° NNE
Cosmos 405 3.1 22:20:31 10° NNW 22:24:09 78° W 22:27:43 10° S
Meteor 2-20 Rocket 4.5 22:18:28 10° S 22:24:38 83° E 22:30:48 10° N
YAOGAN 6 2.7 22:23:27 14° SSE 22:26:32 63° ENE 22:30:08 10° N
NOSS 3-1 (C) 3.9 22:21:33 10° S 22:26:50 37° ESE 22:32:36 10° NE
Cosmos 304 Rocket 3.8 22:23:13 10° NNW 22:28:05 84° ENE 22:32:12 14° SSE
CZ-4C R/B 4.4 22:29:16 15° ESE 22:31:15 24° ENE 22:34:07 10° NNE
Cosmos 1328 3.7 22:28:27 10° S 22:32:23 69° E 22:36:19 10° NNE
H-2A R/B 3.2 22:29:35 14° ESE 22:33:26 31° ENE 22:38:08 10° N
Cosmos 1151 Rocket 3.4 22:29:54 10° NNW 22:34:10 64° W 22:38:26 10° S
Cosmos 2219 Rocket 3.4 22:31:44 10° N 22:36:34 29° NE 22:40:42 13° ESE
Cosmos 1805 Rocket 3.8 22:33:35 12° S 22:37:33 54° E 22:41:54 10° NNE
MetOp-A 4.3 22:33:52 10° S 22:39:10 76° WSW 22:44:33 10° NNW
SWAS 4.5 22:35:29 10° NNW 22:39:49 78° ENE 22:42:49 20° SSE
ARGOS 3.2 22:37:03 16° SSE 22:41:27 68° ENE 22:46:49 10° N
Cosmos 2237 4.4 22:36:09 10° NNW 22:41:51 63° ENE 22:46:02 19° SE
Landsat 7 4.5 22:39:24 18° SE 22:42:34 41° ENE 22:47:01 10° N
Cosmos 1680 Rocket 3.7 22:40:05 10° NNW 22:45:20 73° WSW 22:49:36 16° S
SPOT 1/Viking Rocket 3.5 22:41:07 15° SSE 22:45:25 86° ENE 22:50:36 10° NNW
Cosmos 2058 2.8 22:46:02 13° S 22:49:38 78° E 22:53:45 10° N
CZ-4B R/B 3.6 22:47:14 10° NNE 22:52:33 89° WNW 22:57:45 10° SSW
H-2A R/B 4.2 22:50:21 10° SSW 22:53:57 23° W 22:57:36 10° NW
Cosmos 1707 Rocket 3.5 22:50:52 10° N 22:55:14 80° E 22:58:04 22° SSE
Cosmos 2219 3.2 22:50:23 10° SSW 22:56:08 82° ESE 23:01:55 10° NNE
Terra 2.5 22:55:46 21° SE 22:58:26 41° ENE 23:02:53 10° N
SL-14 R/B 3.3 22:56:58 22° S 22:59:24 66° E 23:03:23 10° NNE
Cosmos 1666 Rocket 3.5 22:56:36 19° S 22:59:44 70° E 23:04:09 10° NNE
Cosmos 1703 4.0 22:58:44 27° SE 23:00:06 35° E 23:03:41 10° NNE
Cosmos 1898 Rocket 3.7 22:56:18 17° S 23:00:08 51° ESE 23:05:11 10° NNE
Cosmos 1726 2.1 22:57:09 10° N 23:00:55 71° E 23:02:46 28° SSE
Meteor 1-27 4.2 22:55:26 10° N 23:01:11 87° E 23:05:11 20° S
Cosmos 1745 Rocket 4.4 22:57:28 20° SSE 23:01:27 45° E 23:07:17 10° NNE
Meteor 2-11 Rocket 4.4 22:55:21 10° N 23:01:33 83° E 23:06:04 19° S
Cosmos 2150 Rocket 4.2 22:57:11 15° S 23:01:34 55° ESE 23:06:54 10° NNE
Cosmos 1271 Rocket 3.2 22:58:02 10° N 23:01:43 43° ENE 23:03:14 28° SE
Cosmos 2333 4.3 22:56:22 10° NNW 23:02:05 68° ENE 23:05:40 24° SE
Cosmos 2322 4.4 22:58:24 10° NW 23:03:52 48° WSW 23:08:14 16° S
Cosmos 2237 Rocket 3.4 23:00:01 10° N 23:05:08 32° NE 23:08:42 17° ESE
CZ-4 R/B 4.0 23:07:06 10° NNE 23:12:05 80° WNW 23:16:34 12° SSW
DMSP B5D2-2 4.4 23:07:34 10° NNE 23:12:36 46° E 23:15:08 26° SSE
Cosmos 1470 Rocket 4.2 23:11:47 29° SE 23:13:11 37° E 23:17:11 10° NNE
Cosmos 1933 Rocket 4.2 23:13:06 29° SE 23:14:36 38° E 23:18:46 10° NNE
Iridium 2 3.9 23:14:54 35° SSE 23:16:11 53° E 23:19:56 10° NNE
IGS 5A 3.8 23:14:41 31° SE 23:16:23 53° ENE 23:20:27 10° N
Cosmos 2360 Rocket 3.4 23:13:08 10° NW 23:18:13 35° WSW 23:22:22 14° SSW
SeaSat 1 4.1 23:15:33 13° E 23:18:44 23° NE 23:22:35 10° N
NOSS 3-1 (A) 3.3 23:23:36 10° SSW 23:29:28 79° ESE 23:36:01 10° NE
NOSS 0 Rocket 4.0 23:23:56 10° NNW 23:30:05 66° ENE 23:33:19 29° SE
USA 32 4.1 23:25:49 10° N 23:31:06 79° W 23:34:02 27° S
Meteor 2-10 4.2 23:25:34 10° N 23:31:18 82° E 23:34:14 30° SSE
Meteor 1-4 Rocket 2.8 23:29:14 10° NNW 23:33:00 68° W 23:34:10 40° SSW
Cosmos 2242 Rocket 3.9 23:32:37 10° NNW 23:37:02 62° W 23:39:06 30° SSW
Cosmos 1626 2.2 23:40:11 51° SE 23:40:39 55° E 23:44:20 10° NNE
Cosmos 2227 Rocket 2.3 23:42:29 33° SSE 23:44:45 55° ESE 23:50:17 10° NNE
ATLAS 2AS CENTAUR R/B 3.2 23:48:09 28° S 23:52:01 51° ESE 23:59:41 10° NE
Cosmos 2333 Rocket 2.2 23:47:03 10° NNW 23:52:51 83° ENE 23:55:11 38° SSE
Cosmos 1862 Rocket 3.4 23:49:18 10° N 23:53:40 90° ENE 23:54:46 50° S
